Time,TemperatureF,DewpointF,PressureIn,WindDirection,WindDirectionDegrees,WindSpeedMPH,WindSpeedGustMPH,Humidity,HourlyPrecipIn,Conditions,Clouds,dailyrainin,SoftwareType,DateUTC
2013-04-04 00:11:00,47.4,47.0,30.04,SW,226,4.0,7.0,98,0.00,,,0.00,weatherlink.com 1.10,2013-04-04 07:11:00,
2013-04-04 00:26:00,47.7,47.0,30.05,SW,224,4.0,8.0,98,0.00,,,0.00,weatherlink.com 1.10,2013-04-04 07:26:00,
2013-04-04 00:41:00,47.8,47.0,30.04,SW,226,3.0,9.0,98,0.01,,,0.00,weatherlink.com 1.10,2013-04-04 07:41:00,
2013-04-04 00:56:00,47.9,47.0,30.03,NE,52,2.0,4.0,98,0.02,,,0.01,weatherlink.com 1.10,2013-04-04 07:56:00,
2013-04-04 01:11:00,47.9,47.0,30.03,NNE,15,0.0,5.0,98,0.06,,,0.05,weatherlink.com 1.10,2013-04-04 08:11:00,
2013-04-04 01:26:00,47.9,47.0,30.02,NNE,27,0.0,6.0,98,0.08,,,0.07,weatherlink.com 1.10,2013-04-04 08:26:00,
2013-04-04 01:41:00,47.9,47.0,30.01,North,355,0.0,8.0,98,0.10,,,0.10,weatherlink.com 1.10,2013-04-04 08:41:00,
2013-04-04 01:56:00,47.9,47.0,30.01,NNE,23,2.0,6.0,98,0.11,,,0.12,weatherlink.com 1.10,2013-04-04 08:56:00,
2013-04-04 02:41:00,48.1,48.0,30.00,SW,220,0.0,5.0,98,0.02,,,0.13,weatherlink.com 1.10,2013-04-04 09:41:00,
2013-04-04 02:56:00,48.2,48.0,30.01,WSW,245,0.0,0.0,98,0.07,,,0.19,weatherlink.com 1.10,2013-04-04 09:56:00,
2013-04-04 03:12:00,48.2,48.0,30.00,NNE,24,0.0,0.0,98,0.10,,,0.23,weatherlink.com 1.10,2013-04-04 10:12:00,
2013-04-04 03:27:00,48.4,48.0,29.99,NNE,24,3.0,6.0,98,0.15,,,0.28,weatherlink.com 1.10,2013-04-04 10:27:00,
2013-04-04 03:41:00,48.8,48.0,29.98,NNE,29,0.0,10.0,98,0.20,,,0.33,weatherlink.com 1.10,2013-04-04 10:41:00,
2013-04-04 03:56:00,49.0,49.0,29.99,NNE,22,8.0,10.0,98,0.22,,,0.41,weatherlink.com 1.10,2013-04-04 10:56:00,
2013-04-04 04:12:00,49.1,49.0,29.98,North,360,2.0,12.0,98,0.25,,,0.48,weatherlink.com 1.10,2013-04-04 11:12:00,
2013-04-04 04:27:00,49.5,49.0,29.98,NNE,16,1.0,9.0,98,0.24,,,0.53,weatherlink.com 1.10,2013-04-04 11:27:00,
2013-04-04 04:42:00,49.6,49.0,29.98,NE,40,6.0,8.0,97,0.22,,,0.55,weatherlink.com 1.10,2013-04-04 11:42:00,
2013-04-04 04:57:00,49.9,49.0,29.98,NNE,13,4.0,10.0,98,0.16,,,0.57,weatherlink.com 1.10,2013-04-04 11:57:00,
2013-04-04 05:12:00,49.9,49.0,29.98,ENE,58,4.0,5.0,97,0.10,,,0.58,weatherlink.com 1.10,2013-04-04 12:12:00,
2013-04-04 05:27:00,50.1,49.0,29.98,ENE,57,0.0,6.0,97,0.08,,,0.61,weatherlink.com 1.10,2013-04-04 12:27:00,
2013-04-04 05:42:00,50.3,50.0,29.99,NW,319,0.0,5.0,97,0.12,,,0.67,weatherlink.com 1.10,2013-04-04 12:42:00,
2013-04-04 05:57:00,50.6,50.0,29.98,NNE,26,0.0,4.0,98,0.13,,,0.70,weatherlink.com 1.10,2013-04-04 12:57:00,
2013-04-04 06:12:00,50.7,50.0,29.98,NNE,25,0.0,0.0,97,0.12,,,0.71,weatherlink.com 1.10,2013-04-04 13:12:00,
2013-04-04 06:27:00,50.9,50.0,29.98,NNW,341,0.0,6.0,98,0.12,,,0.73,weatherlink.com 1.10,2013-04-04 13:27:00,
2013-04-04 06:42:00,51.2,51.0,29.98,NNE,30,0.0,8.0,98,0.06,,,0.73,weatherlink.com 1.10,2013-04-04 13:42:00,
2013-04-04 06:57:00,51.2,50.0,29.99,South,175,3.0,10.0,97,0.03,,,0.73,weatherlink.com 1.10,2013-04-04 13:57:00,
2013-04-04 07:12:00,51.2,50.0,29.99,SW,232,3.0,9.0,97,0.03,,,0.74,weatherlink.com 1.10,2013-04-04 14:12:00,
2013-04-04 07:27:00,51.4,51.0,30.00,ENE,71,2.0,8.0,97,0.02,,,0.75,weatherlink.com 1.10,2013-04-04 14:27:00,
2013-04-04 07:42:00,51.4,51.0,30.00,West,263,0.0,11.0,97,0.05,,,0.78,weatherlink.com 1.10,2013-04-04 14:42:00,
2013-04-04 07:57:00,51.5,51.0,30.01,ENE,73,4.0,8.0,97,0.05,,,0.78,weatherlink.com 1.10,2013-04-04 14:57:00,
2013-04-04 08:12:00,51.6,51.0,30.01,WSW,240,0.0,8.0,97,0.04,,,0.78,weatherlink.com 1.10,2013-04-04 15:12:00,
2013-04-04 08:27:00,51.8,51.0,30.02,SW,228,3.0,10.0,97,0.03,,,0.78,weatherlink.com 1.10,2013-04-04 15:27:00,
2013-04-04 08:42:00,52.0,51.0,30.02,ENE,64,1.0,9.0,97,0.01,,,0.79,weatherlink.com 1.10,2013-04-04 15:42:00,
2013-04-04 08:57:00,52.1,52.0,30.03,South,180,3.0,7.0,98,0.01,,,0.79,weatherlink.com 1.10,2013-04-04 15:57:00,
2013-04-04 09:12:00,52.3,52.0,30.03,SW,219,5.0,7.0,98,0.01,,,0.79,weatherlink.com 1.10,2013-04-04 16:12:00,
2013-04-04 09:42:00,52.7,52.0,30.04,SW,215,4.0,8.0,97,0.00,,,0.79,weatherlink.com 1.10,2013-04-04 16:42:00,
2013-04-04 09:57:00,52.9,52.0,30.04,SW,233,2.0,7.0,98,0.00,,,0.79,weatherlink.com 1.10,2013-04-04 16:57:00,
2013-04-04 10:12:00,53.1,53.0,30.04,SW,220,4.0,12.0,98,0.00,,,0.79,weatherlink.com 1.10,2013-04-04 17:12:00,
2013-04-04 10:27:00,53.0,53.0,30.05,South,190,0.0,9.0,98,0.01,,,0.80,weatherlink.com 1.10,2013-04-04 17:27:00,
2013-04-04 10:42:00,53.1,53.0,30.06,SW,221,4.0,7.0,98,0.01,,,0.80,weatherlink.com 1.10,2013-04-04 17:42:00,
2013-04-04 10:58:00,53.4,53.0,30.06,SSW,198,4.0,7.0,98,0.01,,,0.80,weatherlink.com 1.10,2013-04-04 17:58:00,
2013-04-04 11:13:00,53.9,53.0,30.06,South,172,0.0,5.0,98,0.01,,,0.80,weatherlink.com 1.10,2013-04-04 18:13:00,
2013-04-04 11:28:00,54.1,54.0,30.07,South,175,2.0,4.0,98,0.00,,,0.80,weatherlink.com 1.10,2013-04-04 18:28:00,
2013-04-04 11:43:00,53.8,53.0,30.07,SW,217,5.0,6.0,98,0.01,,,0.81,weatherlink.com 1.10,2013-04-04 18:43:00,
2013-04-04 11:58:00,54.2,54.0,30.07,WSW,241,0.0,5.0,98,0.01,,,0.81,weatherlink.com 1.10,2013-04-04 18:58:00,
2013-04-04 12:13:00,54.8,54.0,30.07,SW,214,2.0,5.0,98,0.01,,,0.81,weatherlink.com 1.10,2013-04-04 19:13:00,
2013-04-04 12:28:00,55.2,55.0,30.07,SSW,205,5.0,8.0,98,0.01,,,0.81,weatherlink.com 1.10,2013-04-04 19:28:00,
2013-04-04 12:43:00,54.1,54.0,30.08,SW,217,6.0,7.0,98,0.00,,,0.81,weatherlink.com 1.10,2013-04-04 19:43:00,
2013-04-04 13:01:00,53.8,53.0,30.08,SSW,196,4.0,6.0,98,0.00,,,0.81,weatherlink.com 1.10,2013-04-04 20:01:00,
2013-04-04 13:12:00,54.0,54.0,30.08,SSW,213,2.0,6.0,98,0.00,,,0.81,weatherlink.com 1.10,2013-04-04 20:12:00,
2013-04-04 13:27:00,54.2,54.0,30.08,SW,226,4.0,6.0,98,0.00,,,0.81,weatherlink.com 1.10,2013-04-04 20:27:00,
2013-04-04 13:42:00,53.5,53.0,30.08,SSW,201,4.0,7.0,98,0.00,,,0.81,weatherlink.com 1.10,2013-04-04 20:42:00,
2013-04-04 13:57:00,53.7,53.0,30.08,SW,221,4.0,7.0,98,0.00,,,0.81,weatherlink.com 1.10,2013-04-04 20:57:00,
2013-04-04 14:12:00,54.0,54.0,30.09,SW,216,4.0,6.0,98,0.00,,,0.81,weatherlink.com 1.10,2013-04-04 21:12:00,
2013-04-04 14:27:00,53.8,53.0,30.09,SW,214,5.0,7.0,98,0.00,,,0.81,weatherlink.com 1.10,2013-04-04 21:27:00,
2013-04-04 14:42:00,53.7,53.0,30.09,SW,227,6.0,6.0,98,0.00,,,0.81,weatherlink.com 1.10,2013-04-04 21:42:00,
2013-04-04 14:57:00,54.3,54.0,30.09,SSW,213,0.0,0.0,98,0.00,,,0.81,weatherlink.com 1.10,2013-04-04 21:57:00,
2013-04-04 15:12:00,54.4,54.0,30.09,SW,218,0.0,4.0,98,0.00,,,0.81,weatherlink.com 1.10,2013-04-04 22:12:00,
2013-04-04 15:27:00,55.2,55.0,30.09,SW,216,0.0,0.0,98,0.00,,,0.81,weatherlink.com 1.10,2013-04-04 22:27:00,
2013-04-04 15:42:00,54.9,54.0,30.09,SW,225,3.0,6.0,98,0.00,,,0.81,weatherlink.com 1.10,2013-04-04 22:42:00,
2013-04-04 15:57:00,53.7,53.0,30.10,SSW,206,5.0,7.0,97,0.00,,,0.81,weatherlink.com 1.10,2013-04-04 22:57:00,
2013-04-04 16:12:00,53.7,53.0,30.09,SW,232,4.0,5.0,98,0.00,,,0.81,weatherlink.com 1.10,2013-04-04 23:12:00,
2013-04-04 16:27:00,54.0,54.0,30.09,SW,227,4.0,6.0,98,0.00,,,0.81,weatherlink.com 1.10,2013-04-04 23:27:00,
2013-04-04 16:42:00,53.8,53.0,30.09,SSE,162,0.0,7.0,98,0.00,,,0.81,weatherlink.com 1.10,2013-04-04 23:42:00,
2013-04-04 16:57:00,53.8,53.0,30.09,SW,216,0.0,5.0,98,0.00,,,0.81,weatherlink.com 1.10,2013-04-04 23:57:00,
2013-04-04 17:12:00,53.9,53.0,30.09,SW,226,1.0,5.0,98,0.00,,,0.81,weatherlink.com 1.10,2013-04-05 00:12:00,
2013-04-04 17:27:00,53.7,53.0,30.09,SW,226,0.0,6.0,98,0.00,,,0.81,weatherlink.com 1.10,2013-04-05 00:27:00,
2013-04-04 17:42:00,53.5,53.0,30.09,SW,217,3.0,5.0,98,0.00,,,0.81,weatherlink.com 1.10,2013-04-05 00:42:00,
2013-04-04 17:57:00,53.3,53.0,30.09,SW,229,2.0,6.0,98,0.00,,,0.81,weatherlink.com 1.10,2013-04-05 00:57:00,
2013-04-04 18:12:00,52.9,52.0,30.09,SSW,208,1.0,7.0,98,0.00,,,0.81,weatherlink.com 1.10,2013-04-05 01:12:00,
2013-04-04 18:27:00,52.8,52.0,30.09,SSW,200,1.0,6.0,98,0.00,,,0.81,weatherlink.com 1.10,2013-04-05 01:27:00,
2013-04-04 18:42:00,52.8,52.0,30.09,SW,224,0.0,5.0,98,0.00,,,0.81,weatherlink.com 1.10,2013-04-05 01:42:00,
2013-04-04 18:57:00,52.8,52.0,30.09,SW,219,0.0,0.0,98,0.00,,,0.81,weatherlink.com 1.10,2013-04-05 01:57:00,
2013-04-04 19:12:00,52.7,52.0,30.09,SW,215,0.0,4.0,98,0.01,,,0.82,weatherlink.com 1.10,2013-04-05 02:12:00,
2013-04-04 19:27:00,52.6,52.0,30.09,SW,221,0.0,4.0,98,0.01,,,0.82,weatherlink.com 1.10,2013-04-05 02:27:00,
2013-04-04 19:42:00,52.6,52.0,30.09,SW,233,0.0,0.0,98,0.01,,,0.82,weatherlink.com 1.10,2013-04-05 02:42:00,
2013-04-04 19:57:00,52.6,52.0,30.09,SW,223,0.0,0.0,98,0.01,,,0.82,weatherlink.com 1.10,2013-04-05 02:57:00,
2013-04-04 20:12:00,52.6,52.0,30.09,West,267,0.0,0.0,98,0.00,,,0.82,weatherlink.com 1.10,2013-04-05 03:12:00,
2013-04-04 20:27:00,52.6,52.0,30.10,West,271,0.0,0.0,98,0.00,,,0.82,weatherlink.com 1.10,2013-04-05 03:27:00,
2013-04-04 20:42:00,52.7,52.0,30.11,West,271,0.0,0.0,98,0.00,,,0.82,weatherlink.com 1.10,2013-04-05 03:42:00,
2013-04-04 20:57:00,52.7,52.0,30.11,SW,214,0.0,0.0,98,0.00,,,0.82,weatherlink.com 1.10,2013-04-05 03:57:00,
2013-04-04 21:12:00,52.6,52.0,30.11,SW,223,0.0,0.0,98,0.00,,,0.82,weatherlink.com 1.10,2013-04-05 04:12:00,
2013-04-04 21:27:00,52.7,52.0,30.11,NNW,327,0.0,0.0,98,0.00,,,0.82,weatherlink.com 1.10,2013-04-05 04:27:00,
2013-04-04 21:42:00,52.8,52.0,30.12,North,355,0.0,0.0,98,0.00,,,0.82,weatherlink.com 1.10,2013-04-05 04:42:00,
2013-04-04 21:57:00,52.9,52.0,30.12,North,360,0.0,0.0,98,0.00,,,0.82,weatherlink.com 1.10,2013-04-05 04:57:00,
2013-04-04 22:12:00,52.9,52.0,30.12,North,5,0.0,0.0,98,0.00,,,0.82,weatherlink.com 1.10,2013-04-05 05:12:00,
2013-04-04 22:27:00,52.9,52.0,30.12,NNW,339,0.0,0.0,98,0.00,,,0.82,weatherlink.com 1.10,2013-04-05 05:27:00,
2013-04-04 22:57:00,53.0,53.0,30.13,NNW,339,0.0,0.0,98,0.00,,,0.82,weatherlink.com 1.10,2013-04-05 05:57:00,
2013-04-04 23:12:00,53.0,53.0,30.13,NNW,339,0.0,0.0,98,0.00,,,0.82,weatherlink.com 1.10,2013-04-05 06:12:00,
2013-04-04 23:27:00,53.1,53.0,30.12,North,360,0.0,0.0,98,0.00,,,0.82,weatherlink.com 1.10,2013-04-05 06:27:00,
2013-04-04 23:43:00,53.1,53.0,30.12,WSW,258,0.0,0.0,98,0.01,,,0.83,weatherlink.com 1.10,2013-04-05 06:43:00,
2013-04-04 23:58:00,53.2,53.0,30.13,WSW,240,0.0,0.0,98,0.01,,,0.83,weatherlink.com 1.10,2013-04-05 06:58:00,